ID TEMP HUMIDITY DATE
1 23 38 2022-01-17 22:19:11
2 22 37 2022-01-17 22:09:10
3 23 29 2022-01-17 21:59:10
4 25 37 2022-01-17 21:49:10
5 25 42 2022-01-17 21:39:09
6 25 42 2022-01-17 21:29:09
7 25 44 2022-01-17 21:19:08
8 25 45 2022-01-17 21:09:08
9 25 46 2022-01-17 20:59:07
10 24 43 2022-01-17 20:49:07
11 22 33 2022-01-17 20:39:06
12 22 35 2022-01-17 20:29:06
13 23 47 2022-01-17 20:19:05
14 22 35 2022-01-17 20:09:05
15 24 47 2022-01-17 19:59:04
16 22 33 2022-01-17 19:49:00
17 24 43 2022-01-17 19:39:00
18 23 41 2022-01-17 19:28:59
19 22 38 2022-01-17 19:18:59
20 22 39 2022-01-17 19:08:58
21 22 38 2022-01-17 18:58:58
22 23 34 2022-01-17 18:48:57
23 23 46 2022-01-17 18:38:57
24 22 38 2022-01-17 18:28:56
25 22 35 2022-01-17 18:18:56
26 23 39 2022-01-17 18:08:55
27 22 39 2022-01-17 17:58:54
28 22 32 2022-01-17 17:48:54
29 23 36 2022-01-17 17:38:52
30 22 30 2022-01-17 17:28:52
31 22 39 2022-01-17 17:18:51
32 22 33 2022-01-17 17:08:51
33 23 38 2022-01-17 16:58:49
34 22 33 2022-01-17 16:48:47
35 22 32 2022-01-17 16:38:43
36 23 34 2022-01-17 16:28:42
37 24 45 2022-01-17 16:18:42
38 22 33 2022-01-17 16:08:42
39 22 33 2022-01-17 15:58:41
40 22 36 2022-01-17 15:48:41
41 22 33 2022-01-17 15:38:40
42 22 31 2022-01-17 15:28:40
43 23 33 2022-01-17 15:18:39
44 23 39 2022-01-17 15:08:39
45 22 33 2022-01-17 14:58:38
46 23 36 2022-01-17 14:48:38
47 22 33 2022-01-17 14:38:37
48 22 33 2022-01-17 14:28:37
49 22 32 2022-01-17 14:18:36
50 23 30 2022-01-17 14:08:36
51 24 28 2022-01-17 13:58:35
52 26 41 2022-01-17 13:48:35
53 26 43 2022-01-17 13:38:35
54 25 32 2022-01-17 13:28:34
55 25 47 2022-01-17 13:18:34
56 25 31 2022-01-17 13:08:33
57 25 37 2022-01-17 12:58:33
58 24 32 2022-01-17 12:48:32
59 22 33 2022-01-17 12:38:32
60 23 33 2022-01-17 12:28:31
61 24 35 2022-01-17 12:18:31
62 24 47 2022-01-17 12:08:30
63 24 47 2022-01-17 11:58:30
64 24 47 2022-01-17 11:48:29
65 24 47 2022-01-17 11:38:29
66 24 47 2022-01-17 11:28:28
67 24 48 2022-01-17 11:18:28
68 24 46 2022-01-17 11:08:27
69 24 48 2022-01-17 10:58:27
70 23 47 2022-01-17 10:48:26
71 23 46 2022-01-17 10:38:26
72 23 47 2022-01-17 10:28:24
73 23 48 2022-01-17 10:18:18
74 23 47 2022-01-17 10:08:17
75 24 45 2022-01-17 09:58:16
76 23 48 2022-01-17 09:48:15
77 23 45 2022-01-17 09:38:15
78 23 46 2022-01-17 09:28:14
79 23 46 2022-01-17 09:18:13
80 23 46 2022-01-17 09:08:11
81 23 52 2022-01-17 08:58:09
82 23 48 2022-01-17 08:48:08
83 24 47 2022-01-17 08:38:07
84 23 40 2022-01-17 08:28:06
85 23 39 2022-01-17 08:18:05
86 24 38 2022-01-17 08:08:04
87 23 47 2022-01-17 07:58:04
88 23 46 2022-01-17 07:48:03
89 23 40 2022-01-17 07:38:02
90 23 48 2022-01-17 07:28:01
91 23 43 2022-01-17 07:18:01
92 22 38 2022-01-17 07:08:00
93 23 48 2022-01-17 06:57:59
94 23 42 2022-01-17 06:47:59
95 22 38 2022-01-17 06:37:58
96 24 48 2022-01-17 06:27:57
97 22 38 2022-01-17 06:17:57
98 24 51 2022-01-17 06:07:56
99 23 31 2022-01-17 05:57:55
100 25 43 2022-01-17 05:47:55
1   2   3   4   5       Next